Sigfox identifier Datetime Temperature Humidity SNR
003A77C4 2019-02-20 14:04:56 20.8 23 22.8
003A77C4 2019-02-20 13:33:34 20.9 24 22.8
003A77C4 2019-02-20 13:02:12 20.9 25 21.8
003A77C4 2019-02-20 12:30:50 20.9 25 20.5
003A77C4 2019-02-20 11:28:06 20.8 26 18.8
003A77C4 2019-02-20 10:56:44 20.8 26 18.8
003A77C4 2019-02-20 10:25:21 20.8 26 19
003A77C4 2019-02-20 09:53:59 20.8 27 19
003A77C4 2019-02-20 09:22:39 20.7 27 18.8
003A77C4 2019-02-20 08:51:20 20.7 27 15.7
003A77C4 2019-02-20 08:19:59 20.7 27 15.7
003A77C4 2019-02-20 07:48:38 20.7 27 15.7
003A77C4 2019-02-20 07:17:17 20.7 27 15.6
003A77C4 2019-02-20 06:45:55 20.7 27 15.5
003A77C4 2019-02-20 06:14:37 20.7 27 15.4
003A77C4 2019-02-20 05:43:13 20.8 27 15.5
003A77C4 2019-02-20 05:11:50 21 27 15.6
003A77C4 2019-02-20 05:10:37 20.8 27 15.6
003A77C4 2019-02-20 04:39:14 20.8 27 15.6
003A77C4 2019-02-20 04:07:53 20.8 27 15.5
003A77C4 2019-02-20 03:36:35 20.8 27 15.5
003A77C4 2019-02-20 03:05:11 20.8 27 15.6
003A77C4 2019-02-20 02:33:51 20.8 27 15.5
003A77C4 2019-02-20 02:02:30 20.8 27 15.5
003A77C4 2019-02-20 01:31:09 20.8 27 15.4
003A77C4 2019-02-20 00:59:47 20.8 27 15.3
003A77C4 2019-02-20 00:28:26 20.8 27 14.9
003A77C4 2019-02-19 23:57:06 20.8 27 18.5
003A77C4 2019-02-19 23:25:45 20.8 27 18.5
003A77C4 2019-02-19 22:54:24 20.9 27 18.5
003A77C4 2019-02-19 22:23:03 20.9 27 20.4
003A77C4 2019-02-19 21:51:43 20.9 27 20.2
003A77C4 2019-02-19 21:20:21 20.9 27 20.5
003A77C4 2019-02-19 20:49:02 20.9 27 20.5
003A77C4 2019-02-19 20:17:40 20.9 27 20.5
003A77C4 2019-02-19 19:46:20 20.9 27 20.5
003A77C4 2019-02-19 19:15:00 20.9 27 20.6
003A77C4 2019-02-19 18:43:40 21 27 20.8
003A77C4 2019-02-19 18:12:22 21 27 20.9
003A77C4 2019-02-19 17:41:01 21.1 27 21.1
003A77C4 2019-02-19 17:09:40 21.1 27 21.3
003A77C4 2019-02-19 16:38:21 21.1 27 21.3
003A77C4 2019-02-19 16:07:00 21.1 27 21.5
003A77C4 2019-02-19 15:04:21 21.1 26 21.5
003A77C4 2019-02-19 14:33:02 21.1 26 21.6
003A77C4 2019-02-19 14:01:43 21.1 27 21.6
003A77C4 2019-02-19 13:30:25 21.1 27 21.6
003A77C4 2019-02-19 12:59:05 21 26 21.6
003A77C4 2019-02-19 12:27:46 21 26 21.7
003A77C4 2019-02-19 11:56:27 21 26 22
003A77C4 2019-02-19 11:25:07 21 26 22
003A77C4 2019-02-19 10:53:47 21 26 21
003A77C4 2019-02-19 10:22:28 20.9 26 21.3
003A77C4 2019-02-19 09:51:07 20.9 25 21.4
003A77C4 2019-02-19 09:19:47 20.8 25 20
003A77C4 2019-02-19 08:48:25 20.8 25 20.1
003A77C4 2019-02-19 08:17:02 20.8 25 20.2
003A77C4 2019-02-19 07:45:42 20.8 25 20.1
003A77C4 2019-02-19 07:14:22 20.8 25 20.3
003A77C4 2019-02-19 06:43:00 20.8 24 20.3
003A77C4 2019-02-19 06:11:40 20.8 24 20.3
003A77C4 2019-02-19 05:40:20 20.8 24 20.1
003A77C4 2019-02-19 05:08:59 20.8 24 20.2
003A77C4 2019-02-19 04:37:38 20.8 24 20.1
003A77C4 2019-02-19 04:06:16 20.8 24 21.3
003A77C4 2019-02-19 03:34:55 21 24 21.1
003A77C4 2019-02-19 03:33:42 20.8 24 21.1
003A77C4 2019-02-19 03:02:20 20.8 24 21.1
003A77C4 2019-02-19 02:30:58 20.8 24 21.3
003A77C4 2019-02-19 01:59:36 20.8 23 21.2
003A77C4 2019-02-19 01:28:14 20.8 23 21.2
003A77C4 2019-02-19 00:56:53 20.8 23 21.6
003A77C4 2019-02-19 00:25:31 20.8 23 21.8
003A77C4 2019-02-18 23:54:11 20.8 23 21.8
003A77C4 2019-02-18 23:22:52 20.8 23 21.6
003A77C4 2019-02-18 22:51:32 20.8 23 21.6
003A77C4 2019-02-18 22:20:13 20.8 23 21.5
003A77C4 2019-02-18 21:48:52 20.8 22 21.5
003A77C4 2019-02-18 21:17:30 20.8 22 21.5
003A77C4 2019-02-18 20:46:12 20.8 22 21.6
003A77C4 2019-02-18 20:14:54 20.8 22 21.7
003A77C4 2019-02-18 19:43:32 20.8 22 22
003A77C4 2019-02-18 19:12:12 20.8 22 22
003A77C4 2019-02-18 18:40:51 20.9 22 22
003A77C4 2019-02-18 18:09:31 20.9 21 22.1
003A77C4 2019-02-18 17:38:10 20.9 21 22.2
003A77C4 2019-02-18 17:06:50 20.9 21 22.3
003A77C4 2019-02-18 16:35:30 20.9 21 22.2
003A77C4 2019-02-18 16:04:08 21 21 22.2
003A77C4 2019-02-18 15:01:26 21 21 21.2
003A77C4 2019-02-18 14:30:05 21.1 21 21.3
003A77C4 2019-02-18 13:58:45 21.1 20 21.4
003A77C4 2019-02-18 13:27:26 21.2 20 21.5
003A77C4 2019-02-18 12:56:06 21.3 19 21.5
003A77C4 2019-02-18 12:24:46 21.5 19 21.8
003A77C4 2019-02-18 11:53:23 21.5 19 21.8
003A77C4 2019-02-18 11:21:59 21.4 19 22.5
003A77C4 2019-02-18 10:50:40 21.4 19 22.6
003A77C4 2019-02-18 10:19:21 21.3 19 22.6
003A77C4 2019-02-18 09:48:00 21.3 19 22.7
003A77C4 2019-02-18 09:16:38 21.2 19 22.8
003A77C4 2019-02-18 08:45:19 21.2 18 23
003A77C4 2019-02-18 08:14:00 21.1 18 22.9
003A77C4 2019-02-18 07:42:40 21.1 18 22.9
003A77C4 2019-02-18 07:11:22 21.1 18 22.9
003A77C4 2019-02-18 06:40:02 21 18 22.9
003A77C4 2019-02-18 06:08:42 21 18 22.8
003A77C4 2019-02-18 05:37:22 21 18 22.8
003A77C4 2019-02-18 05:06:02 21.1 18 22.8
003A77C4 2019-02-18 04:34:43 21 18 22.8
003A77C4 2019-02-18 04:03:23 21 18 22.9
003A77C4 2019-02-18 03:32:03 21 18 22.9
003A77C4 2019-02-18 03:00:40 21.1 19 23.1
003A77C4 2019-02-18 02:29:20 21.1 19 23.1
003A77C4 2019-02-18 01:57:58 21.3 18 23.1
003A77C4 2019-02-18 01:56:46 21.1 19 23.3
003A77C4 2019-02-18 01:25:24 21.1 19 23.3
003A77C4 2019-02-18 00:54:02 21.1 19 23.3
003A77C4 2019-02-18 00:22:42 21.1 19 23.4
003A77C4 2019-02-17 23:51:22 21.1 19 23.4
003A77C4 2019-02-17 23:20:00 21.1 19 23.5
003A77C4 2019-02-17 22:48:39 21.1 19 22.9
003A77C4 2019-02-17 22:17:18 21.1 19 22.9
003A77C4 2019-02-17 21:45:58 21.1 19 23
003A77C4 2019-02-17 21:14:38 21.1 19 23
003A77C4 2019-02-17 20:43:16 21.2 19 22.9
003A77C4 2019-02-17 20:11:54 21.1 20 22.8
003A77C4 2019-02-17 19:40:33 21.2 20 23
003A77C4 2019-02-17 19:09:13 21.1 20 22.9
003A77C4 2019-02-17 18:37:51 21.2 20 22.9
003A77C4 2019-02-17 18:06:29 21.2 20 23
003A77C4 2019-02-17 17:35:05 21.2 20 22.9
003A77C4 2019-02-17 17:03:43 21.2 20 23
003A77C4 2019-02-17 16:32:22 21.2 20 23.1
003A77C4 2019-02-17 16:01:08 21.3 20 23.1
003A77C4 2019-02-17 15:29:42 21.2 20 23.1
003A77C4 2019-02-17 14:58:21 21.3 20 23.1
003A77C4 2019-02-17 14:27:01 21.3 20 23.2
003A77C4 2019-02-17 13:55:41 21.3 20 23.1
003A77C4 2019-02-17 13:24:21 21.3 20 23.1
003A77C4 2019-02-17 12:53:01 21.3 21 23.1
003A77C4 2019-02-17 12:21:37 21.2 21 23
003A77C4 2019-02-17 11:50:14 21.2 21 22.8
003A77C4 2019-02-17 11:18:54 21.1 21 22.8
003A77C4 2019-02-17 10:47:31 21.2 21 22.6
003A77C4 2019-02-17 10:16:10 21.1 21 23.3
003A77C4 2019-02-17 09:44:50 21.1 21 23.3
003A77C4 2019-02-17 09:13:30 21.1 21 23.3
003A77C4 2019-02-17 08:42:10 21.1 21 23.2
003A77C4 2019-02-17 08:10:50 21.1 21 23.1
003A77C4 2019-02-17 07:39:30 21.1 21 23.1
003A77C4 2019-02-17 07:08:09 21.1 22 23
003A77C4 2019-02-17 06:36:48 21.1 22 22.9
003A77C4 2019-02-17 06:05:27 21.1 22 23
003A77C4 2019-02-17 05:34:05 21.1 22 23
003A77C4 2019-02-17 05:02:43 21.2 22 23
003A77C4 2019-02-17 04:31:20 21.2 23 23.1
003A77C4 2019-02-17 03:59:58 21.2 23 22.9
003A77C4 2019-02-17 03:28:38 21.2 23 22.9
003A77C4 2019-02-17 02:57:20 21.2 23 22.9
003A77C4 2019-02-17 02:25:56 21.2 23 22.9
003A77C4 2019-02-17 01:54:39 21.2 24 23
003A77C4 2019-02-17 01:23:20 21.2 24 22.9
003A77C4 2019-02-17 00:52:01 21.2 24 23.1
003A77C4 2019-02-17 00:20:38 21.5 24 23
003A77C4 2019-02-17 00:19:25 21.2 24 23.1
003A77C4 2019-02-16 23:48:04 21.2 24 23
003A77C4 2019-02-16 23:16:44 21.2 24 23
003A77C4 2019-02-16 22:45:23 21.3 24 22.9
003A77C4 2019-02-16 22:14:03 21.3 24 23
003A77C4 2019-02-16 21:42:43 21.3 24 22.2
003A77C4 2019-02-16 21:11:23 21.3 24 22.2
003A77C4 2019-02-16 20:40:04 21.3 25 22.1
003A77C4 2019-02-16 20:08:43 21.3 25 22
003A77C4 2019-02-16 19:37:23 21.3 25 22.1
003A77C4 2019-02-16 19:06:01 21.3 25 22.9
003A77C4 2019-02-16 18:34:39 21.3 25 23
003A77C4 2019-02-16 18:03:18 21.3 25 22.9
003A77C4 2019-02-16 17:31:56 21.4 25 22.8
003A77C4 2019-02-16 17:00:36 21.5 25 22.8
003A77C4 2019-02-16 16:29:15 21.5 25 22.7
003A77C4 2019-02-16 15:57:55 21.5 25 22.7
003A77C4 2019-02-16 15:26:34 21.5 25 22.8
003A77C4 2019-02-16 14:55:16 21.5 25 22.8
003A77C4 2019-02-16 14:23:54 21.5 25 23.5
003A77C4 2019-02-16 13:52:35 21.5 24 23.4
003A77C4 2019-02-16 13:21:16 21.4 24 23.4
003A77C4 2019-02-16 12:49:54 21.4 25 23.4
003A77C4 2019-02-16 12:18:33 21.4 25 23.3
003A77C4 2019-02-16 11:47:14 21.3 25 23.4
003A77C4 2019-02-16 11:15:53 21.3 25 23.3
003A77C4 2019-02-16 10:44:34 21.3 25 23.5
003A77C4 2019-02-16 10:13:13 21.3 25 23.5
003A77C4 2019-02-16 09:41:53 21.3 25 23.5
003A77C4 2019-02-16 09:10:34 21.2 25 23.4
003A77C4 2019-02-16 08:39:15 21.2 25 23.5
003A77C4 2019-02-16 08:07:55 21.3 25 23.5
003A77C4 2019-02-16 07:36:37 21.3 25 23.4
003A77C4 2019-02-16 07:05:20 21.3 25 23.5
003A77C4 2019-02-16 06:34:03 21.3 25 23.5
003A77C4 2019-02-16 06:02:44 21.3 25 22.7
003A77C4 2019-02-16 05:31:24 21.3 25 22.8
003A77C4 2019-02-16 05:00:04 21.3 25 23
003A77C4 2019-02-16 04:28:44 21.3 25 23
003A77C4 2019-02-16 03:57:21 21.3 25 22.9
003A77C4 2019-02-16 03:25:59 21.3 25 22.8
003A77C4 2019-02-16 02:54:39 21.3 25 22.8
003A77C4 2019-02-16 02:23:20 21.3 25 22.7
003A77C4 2019-02-16 01:51:58 21.3 25 22.5
003A77C4 2019-02-16 01:20:38 21.4 25 21.5
003A77C4 2019-02-16 00:49:18 21.4 25 21.7
003A77C4 2019-02-16 00:17:58 21.4 25 21.9
003A77C4 2019-02-15 23:46:38 21.4 25 21.9
003A77C4 2019-02-15 23:15:17 21.5 25 22
003A77C4 2019-02-15 22:43:57 21.7 25 22
003A77C4 2019-02-15 22:42:44 21.4 25 21.9
003A77C4 2019-02-15 22:11:22 21.5 25 21.7
003A77C4 2019-02-15 21:40:02 21.5 25 21.6
003A77C4 2019-02-15 21:08:42 21.5 25 21.7
003A77C4 2019-02-15 20:37:21 21.6 25 21.5
003A77C4 2019-02-15 20:06:02 21.6 25 21.5
003A77C4 2019-02-15 19:34:43 21.6 25 21.4
003A77C4 2019-02-15 19:03:23 21.7 25 21.5
003A77C4 2019-02-15 18:32:03 21.8 25 21.6
003A77C4 2019-02-15 18:00:42 21.8 24 21.6
003A77C4 2019-02-15 17:29:22 21.8 24 21.7
003A77C4 2019-02-15 16:58:02 21.8 24 21.6
003A77C4 2019-02-15 16:26:42 21.8 24 21.5
003A77C4 2019-02-15 15:55:20 21.8 24 21.7
003A77C4 2019-02-15 15:24:00 21.8 24 21.9
003A77C4 2019-02-15 14:52:37 21.8 24 21.9
003A77C4 2019-02-15 14:21:17 21.8 24 21.8
003A77C4 2019-02-15 13:49:58 21.8 24 21.8
003A77C4 2019-02-15 13:18:37 21.8 24 21.9
003A77C4 2019-02-15 12:47:16 21.7 24 22
003A77C4 2019-02-15 12:15:55 21.7 24 21.6
003A77C4 2019-02-15 11:44:34 21.6 24 21.4
003A77C4 2019-02-15 11:13:14 21.6 24 21.1
003A77C4 2019-02-15 10:41:53 21.6 24 20.9
003A77C4 2019-02-15 10:10:31 21.5 25 20.8
003A77C4 2019-02-15 09:39:08 21.5 25 20.9
003A77C4 2019-02-15 09:07:45 21.5 25 21.1
003A77C4 2019-02-15 08:36:23 21.4 25 21.1
003A77C4 2019-02-15 08:05:01 21.4 25 21.2
003A77C4 2019-02-15 07:33:41 21.4 25 21.3
003A77C4 2019-02-15 07:02:19 21.4 25 21.1
003A77C4 2019-02-15 06:30:54 21.4 25 20.9
003A77C4 2019-02-15 05:59:33 21.4 25 20.8
003A77C4 2019-02-15 05:28:13 21.4 25 20.7
003A77C4 2019-02-15 04:56:52 21.4 25 20.5
003A77C4 2019-02-15 04:25:29 21.4 25 20.4
003A77C4 2019-02-15 03:54:07 21.4 25 20.4
003A77C4 2019-02-15 03:22:47 21.4 25 20.2
003A77C4 2019-02-15 02:51:26 21.4 25 19.8
003A77C4 2019-02-15 02:20:08 21.4 25 19.4
003A77C4 2019-02-15 01:48:50 21.4 25 19.2
003A77C4 2019-02-15 01:17:30 21.5 25 19.3
003A77C4 2019-02-15 00:46:08 21.5 25 19.1
003A77C4 2019-02-15 00:14:46 21.5 25 18.9
003A77C4 2019-02-14 23:43:23 21.5 25 18.9
003A77C4 2019-02-14 23:12:03 21.5 25 18.9
003A77C4 2019-02-14 22:40:42 21.5 25 19.4
003A77C4 2019-02-14 22:09:20 21.6 25 19.6
003A77C4 2019-02-14 21:37:58 21.6 25 19.5
003A77C4 2019-02-14 21:06:36 21.8 24 19.5
003A77C4 2019-02-14 21:05:22 21.6 24 19.6
003A77C4 2019-02-14 20:34:02 21.6 24 19.6
003A77C4 2019-02-14 20:02:39 21.7 24 19.9
003A77C4 2019-02-14 19:31:16 21.7 24 19.8
003A77C4 2019-02-14 18:59:54 21.8 24 19.9
003A77C4 2019-02-14 18:28:32 21.8 24 20
003A77C4 2019-02-14 17:57:11 21.8 24 20.4
003A77C4 2019-02-14 17:25:50 21.9 24 20.7
003A77C4 2019-02-14 16:54:30 22 24 20.9
003A77C4 2019-02-14 16:23:09 22 24 20.9
003A77C4 2019-02-14 15:51:49 22 24 21
003A77C4 2019-02-14 15:20:29 21.9 24 21.1
003A77C4 2019-02-14 14:17:47 21.7 24 21.4
003A77C4 2019-02-14 13:46:29 21.6 23 21.5
003A77C4 2019-02-14 13:15:07 21.5 24 21.7
003A77C4 2019-02-14 12:43:48 21.4 23 22
003A77C4 2019-02-14 12:12:29 21.3 23 22.2
003A77C4 2019-02-14 11:41:08 21.3 24 22.3
003A77C4 2019-02-14 11:09:48 21.2 24 22.4
003A77C4 2019-02-14 10:38:27 21.1 24 22.3
003A77C4 2019-02-14 10:07:08 21 24 22.3
003A77C4 2019-02-14 09:35:46 21 24 22
003A77C4 2019-02-14 09:04:26 20.8 24 21.9
003A77C4 2019-02-14 08:33:05 20.8 24 21.8
003A77C4 2019-02-14 08:01:46 20.8 24 21.8
003A77C4 2019-02-14 07:30:28 20.8 25 21.8
003A77C4 2019-02-14 06:59:07 20.8 25 21.6
003A77C4 2019-02-14 06:27:46 20.8 25 21.5
003A77C4 2019-02-14 05:56:24 20.8 25 21.4
003A77C4 2019-02-14 05:25:02 20.9 25 21.2
003A77C4 2019-02-14 04:53:42 20.9 25 21.3
003A77C4 2019-02-14 04:22:22 20.9 25 21
003A77C4 2019-02-14 03:51:02 20.9 25 20.7
003A77C4 2019-02-14 03:19:43 20.9 25 20.4
003A77C4 2019-02-14 02:48:21 20.9 25 20.3
003A77C4 2019-02-14 02:16:57 20.9 25 20.1
003A77C4 2019-02-14 01:45:35 20.9 25 19.9
003A77C4 2019-02-14 01:14:13 20.9 25 19.5
003A77C4 2019-02-14 00:42:52 20.9 25 20.8
003A77C4 2019-02-14 00:11:30 20.9 25 20.6
003A77C4 2019-02-13 23:40:09 20.9 25 20.1
003A77C4 2019-02-13 23:08:48 21 25 19.9
003A77C4 2019-02-13 22:37:25 21 25 19.7
003A77C4 2019-02-13 22:06:02 21 25 19.7
003A77C4 2019-02-13 21:34:42 21.1 25 19.7
003A77C4 2019-02-13 21:03:20 21.1 25 19.8
003A77C4 2019-02-13 20:32:01 21.2 25 20.1
003A77C4 2019-02-13 20:00:38 21.3 25 20.4
003A77C4 2019-02-13 19:29:18 21.6 25 20.5
003A77C4 2019-02-13 19:28:04 21.3 25 20.4
003A77C4 2019-02-13 18:56:43 21.4 25 20.6
003A77C4 2019-02-13 18:25:23 21.5 26 20.7
003A77C4 2019-02-13 17:54:00 21.5 26 20.6
003A77C4 2019-02-13 17:22:37 21.4 26 20.7
003A77C4 2019-02-13 16:51:17 21.4 27 20.8
003A77C4 2019-02-13 16:19:58 21.4 26 20.8
003A77C4 2019-02-13 15:48:35 21.3 25 21
003A77C4 2019-02-13 15:17:14 21.2 25 21.2
003A77C4 2019-02-13 14:45:53 21.2 25 21.1
003A77C4 2019-02-13 14:14:32 21.2 24 21.3
003A77C4 2019-02-13 13:43:13 21.2 24 21.4
003A77C4 2019-02-13 13:11:51 21.2 24 21.5
003A77C4 2019-02-13 12:40:30 21.2 24 21.8
003A77C4 2019-02-13 12:09:11 21.1 24 20.8
003A77C4 2019-02-13 11:37:48 21.1 24 20.8
003A77C4 2019-02-13 11:06:27 21 24 20.8
003A77C4 2019-02-13 10:35:05 20.9 24 21
003A77C4 2019-02-13 10:03:44 20.9 23 21.1
003A77C4 2019-02-13 09:32:22 20.9 22 22.2
003A77C4 2019-02-13 09:00:59 20.8 22 22.2
003A77C4 2019-02-13 08:29:38 20.8 21 22.2
003A77C4 2019-02-13 07:58:17 20.8 20 22.1
003A77C4 2019-02-13 07:26:55 20.8 19 22
003A77C4 2019-02-13 06:55:35 20.8 19 22
003A77C4 2019-02-13 06:24:14 20.8 19 22
003A77C4 2019-02-13 05:52:52 20.8 19 21.9
003A77C4 2019-02-13 05:21:30 20.8 19 22
003A77C4 2019-02-13 04:50:08 20.8 19 21.9
003A77C4 2019-02-13 04:18:45 20.8 19 21.8
003A77C4 2019-02-13 03:47:25 20.9 19 21.7
003A77C4 2019-02-13 03:16:02 20.9 19 21.6
003A77C4 2019-02-13 02:44:41 20.8 18 21.4
003A77C4 2019-02-13 02:13:20 20.9 18 21.2
003A77C4 2019-02-13 01:41:58 20.9 18 21.2
003A77C4 2019-02-13 01:10:37 20.9 18 21.2
003A77C4 2019-02-13 00:39:17 20.9 18 21.3
003A77C4 2019-02-13 00:07:56 20.9 19 21.2
003A77C4 2019-02-12 23:36:34 21 19 21
003A77C4 2019-02-12 23:05:12 21 19 20.8
003A77C4 2019-02-12 22:33:53 21 19 20.8
003A77C4 2019-02-12 22:02:31 21.1 19 20.8
003A77C4 2019-02-12 21:31:08 21.2 20 20.7
003A77C4 2019-02-12 20:59:46 21.3 20 20.5
003A77C4 2019-02-12 20:28:25 21.4 20 19
003A77C4 2019-02-12 19:57:04 21.5 20 19.2
003A77C4 2019-02-12 19:25:45 21.5 20 19.5
003A77C4 2019-02-12 18:54:23 21.6 19 19.5
003A77C4 2019-02-12 18:23:03 21.6 19 19.5
003A77C4 2019-02-12 17:51:43 22 18 19.5
003A77C4 2019-02-12 17:50:30 21.7 19 19.4
003A77C4 2019-02-12 17:19:09 21.9 18 19.1
003A77C4 2019-02-12 16:47:50 22 18 18.9
003A77C4 2019-02-12 16:16:27 22.2 18 18.9
003A77C4 2019-02-12 15:45:07 22.3 18 19
003A77C4 2019-02-12 15:13:43 22.3 18 19
003A77C4 2019-02-12 14:42:24 22 19 19.2
003A77C4 2019-02-12 14:11:01 21.6 19 19.2
003A77C4 2019-02-12 13:39:39 21.4 19 19.3
003A77C4 2019-02-12 13:08:17 21.4 19 19.3
003A77C4 2019-02-12 12:36:55 21.4 20 18.9
003A77C4 2019-02-12 12:05:34 21.3 20 18.6
003A77C4 2019-02-12 11:34:10 21.3 20 18.5
003A77C4 2019-02-12 11:02:49 21.3 21 18.3
003A77C4 2019-02-12 10:31:27 21.3 22 18.2
003A77C4 2019-02-12 10:00:04 21.1 22 18.1
003A77C4 2019-02-12 09:28:43 21.1 23 18
003A77C4 2019-02-12 08:57:19 21 23 17.9
003A77C4 2019-02-12 08:25:58 20.9 23 17.7
003A77C4 2019-02-12 07:54:37 20.8 24 17.3
003A77C4 2019-02-12 07:23:15 20.9 26 16.9
003A77C4 2019-02-12 06:51:54 20.9 26 16.1
003A77C4 2019-02-12 06:20:32 20.9 26 15.9
003A77C4 2019-02-12 05:49:12 20.9 26 15.4
003A77C4 2019-02-12 05:17:49 20.9 26 15.1
003A77C4 2019-02-12 04:46:28 20.9 26 15.2
003A77C4 2019-02-12 04:15:07 20.9 27 15.3
003A77C4 2019-02-12 03:43:41 20.9 27 15.1
003A77C4 2019-02-12 03:12:17 20.9 27 15.1
003A77C4 2019-02-12 02:40:56 20.9 27 14.3
003A77C4 2019-02-12 02:09:31 20.9 27 14.5
003A77C4 2019-02-12 01:38:08 21 27 13.9
003A77C4 2019-02-12 01:06:46 21 27 14
003A77C4 2019-02-12 00:35:24 21 27 13.1
003A77C4 2019-02-12 00:04:01 21 27 13.3
003A77C4 2019-02-11 23:32:39 21.1 27 13.3
003A77C4 2019-02-11 23:01:16 21.1 27 13.3
003A77C4 2019-02-11 22:29:55 21.2 27 13.4
003A77C4 2019-02-11 21:58:32 21.2 27 13.5
003A77C4 2019-02-11 21:27:08 21.3 27 13.6
003A77C4 2019-02-11 20:55:44 21.4 27 13.3
003A77C4 2019-02-11 20:24:20 21.5 27 13.4
003A77C4 2019-02-11 19:52:58 21.5 27 13.7
003A77C4 2019-02-11 19:21:35 21.6 27 13.7
003A77C4 2019-02-11 18:50:12 21.7 27 14
003A77C4 2019-02-11 18:18:49 21.9 27 13.3
003A77C4 2019-02-11 17:47:25 22.1 28 13.1
003A77C4 2019-02-11 17:16:02 22.1 28 13.2
003A77C4 2019-02-11 16:44:37 22.2 28 11.1
003A77C4 2019-02-11 16:13:16 22.1 32 0